Tracking 17145 objects as of 23-May-2015
HD Live streaming from Space Station

SJ-7

Track SJ-7 now!
10-day predictions
SJ-7 is classified as:


NORAD ID: 28737
Int'l Code: 2005-024A
Perigee: 568.2 km
Apogee: 612.5 km
Inclination: 97.7 °
Period: 96.3 minutes
Semi major axis: 6961 km
RCS: 3.0015 m2 (large)
Launch date: July 5, 2005
Source: People's Republic of China (PRC)
Your satellite tracking list
Your tracking list is empty





NASA's NSSDC Master Catalog

Two Line Element Set (TLE):
1 28737U 05024A   15142.88114904  .00001137  00000-0  10907-3 0  9998
2 28737 097.6669 156.0960 0031780 322.0239 037.8697 14.94729409541952

Source of the keplerian elements: AFSPC

N2YO: 398